Skip Page Navigation
NASA JPL Caltech
NASA Logo - Jet Propulsion Laboratory + View the NASA Portal
+ Center for Near-Earth Object Studies
JPL Home Earth Solar System Stars & Galaxies Technology
JPL Solar System Dynamics
BODIES ORBITS EPHEMERIDES TOOLS PHYSICAL DATA DISCOVERY FAQ SITE MAP
JPL Small-Body Database Browser
Search: [ help ]  
335783 (2007 FR10)
Classification: Main-belt Asteroid          SPK-ID: 2335783
Ephemeris | Orbit Diagram | Orbital Elements | Mission Design | Physical Parameters | Discovery Circumstances | Close-Approach Data ]

[ show orbit diagram ]
Orbital Elements at Epoch 2459000.5 (2020-May-31.0) TDB
Reference: JPL 12 (heliocentric ecliptic J2000)
 Element Value Uncertainty (1-sigma)   Units 
e .1467545154750844 5.5539e-08  
a 2.678961894138885 2.5542e-08 au
q 2.285812139388318 1.5243e-07 au
i 4.658357959257447 7.5137e-06 deg
node 340.797592369913 7.5221e-05 deg
peri 324.1455720969941 8.026e-05 deg
M 276.5849027777861 3.0894e-05 deg
tp 2459371.599518378832
(2021-Jun-06.09951838)
0.00014035 TDB
period 1601.578503954584
4.38
2.2905e-05
6.271e-08
d
yr
n .2247782416603966 3.2146e-09 deg/d
Q 3.072111648889452 2.929e-08 au
  Orbit Determination Parameters
   # obs. used (total)      133  
   data-arc span      7537 days (20.64 yr)  
   first obs. used      1999-09-07  
   last obs. used      2020-04-26  
   planetary ephem.      DE431  
   SB-pert. ephem.      SB431-N16  
   condition code      0  
   norm. resid. RMS      .57834  
   source      ORB  
   producer      Otto Matic  
   solution date      2020-May-21 21:43:07  

Additional Information
 Earth MOID = 1.27283 au 
 Jupiter MOID = 2.17514 au 
 T_jup = 3.357 
[ hide covariance matrix ]
Orbital Elements at Epoch 2457484.5 (2016-Apr-06.0) TDB
Reference: JPL 12 (heliocentric ecliptic J2000)
 Element Value Uncertainty (1-sigma)   Units 
e .1457637104032616 5.5516e-08  
q 2.28912802258699 1.5222e-07 au
tp 2457768.753768372450
(2017-Jan-15.25376837)
0.00012979 TDB
node 340.823768662364 7.5222e-05 deg
peri 323.9896432809492 8.0325e-05 deg
i 4.657606890374786 7.5127e-06 deg
  Orbit Determination Parameters
   # obs. used (total)      133  
   data-arc span      7537 days (20.64 yr)  
   first obs. used      1999-09-07  
   last obs. used      2020-04-26  
   planetary ephem.      DE431  
   SB-pert. ephem.      SB431-N16  
   condition code      0  
   norm. resid. RMS      .57834  
   source      ORB  
   producer      Otto Matic  
   solution date      2020-May-21 21:43:07  

Additional Information
 Jupiter MOID = 2.17514 au 
 T_jup = 3.357 
Orbit Covariance (6×6)
  e q tp node peri i
e 3.082000036711778E-15 -8.363498591744878E-15 1.701549051011548E-12 -1.214232261283491E-14 4.159797082898053E-13 -3.433223514072062E-16
q -8.363498591744878E-15 2.317030538609669E-14 -3.315887542214028E-12 2.667638670828663E-14 -8.649270272335995E-13 1.468171129807223E-15
tp 1.701549051011548E-12 -3.315887542214028E-12 1.684507026429581E-8 -3.79215143673748E-11 3.693115543001322E-9 -1.886265346637357E-13
node -1.214232261283491E-14 2.667638670828663E-14 -3.79215143673748E-11 5.658406704249726E-9 -5.647152500607485E-9 1.450909950425342E-10
peri 4.159797082898053E-13 -8.649270272335995E-13 3.693115543001322E-9 -5.647152500607485E-9 6.452176728431116E-9 -1.446823475140997E-10
i -3.433223514072062E-16 1.468171129807223E-15 -1.886265346637357E-13 1.450909950425342E-10 -1.446823475140997E-10 5.644063939748736E-11

Ephemeris | Orbit Diagram | Orbital Elements | Mission Design | Physical Parameters | Discovery Circumstances | Close-Approach Data ]

Physical Parameter Table
Parameter Symbol Value Units Sigma Reference Notes
absolute magnitude H 17.0   n/a MPO471482  

335783 (2007 FR10)          Discovered 2007-Mar-16 by Spacewatch at Kitt Peak
Reference: 20120831/Numbers.arcLast Updated: 2012-09-04

[ show close-approach data ]
Alternate Designations
 2007 FR10 = 2008 RC74 
Ephemeris | Orbit Diagram | Orbital Elements | Mission Design | Physical Parameters | Discovery Circumstances | Close-Approach Data ]
ABOUT SSD CREDITS/AWARDS PRIVACY/COPYRIGHT GLOSSARY LINKS
FirstGov 2020-Aug-12 16:37 UT
(server date/time)  
NASA Home Page
Site Manager:   Ryan S. Park
Webmaster  Alan B. Chamberlin